Regional Weather Roundup
Issued by NWS

Home | Current Version | Previous Version | Graphics & Text | Print | Product List | Glossary On
Versions: 1 2 3 4 5 6 7 8 9 10 11 12 13 14 15 16 17 18 19 20 21 22 23 24 25 26 27 28 29 30 31 32 33 34 35 36 37 38 39 40 41 42 43 44 45 46 47 48 49 50
000
ASUS43 KDTX 180010
RWRMI
MICHIGAN HOURLY REGIONAL WEATHER ROUNDUP
NATIONAL WEATHER SERVICE DETROIT/PONTIAC MI
700 PM EST WED JAN 17 2018

NOTE: "FAIR" INDICATES FEW OR NO CLOUDS BELOW 12,000 FEET WITH NO
SIGNIFICANT WEATHER AND/OR OBSTRUCTION TO VISIBILITY.

MIZ047>049-052>055-059>063-066>070-074>076-081>083-180100-
SOUTHEAST LOWER MICHIGAN

CITY           SKY/WX    TMP DP  RH WIND       PRES   REMARKS
ADRIAN         FAIR      18   9  68 W12       30.33F WCI   5
6HR MIN TEMP:  13; 6HR MAX TEMP:  22;

ALMA           FAIR      26  15  63 SW12G28   30.18F WCI  15
6HR MIN TEMP:  26; 6HR MAX TEMP:  28;

ANN ARBOR      FAIR      21  13  71 S13       30.27F WCI   9
BAD AXE        FAIR      24  13  65 SW16G25   30.12F WCI  10
6HR MIN TEMP:  20; 6HR MAX TEMP:  24;

CARO           FAIR      24  15  69 SW16G28   30.15F WCI  11
DETROIT CITY   FAIR      19  12  74 SW16G23   30.26F WCI   4
6HR MIN TEMP:  19; 6HR MAX TEMP:  24;

DETROIT        MOCLDY    19  12  74 SW17      30.29F WCI   4
6HR MIN TEMP:  18; 6HR MAX TEMP:  24;

FLINT          FAIR      23  11  60 SW12      30.21F WCI  12
6HR MIN TEMP:  22; 6HR MAX TEMP:  26;

GROSSE ILE     FAIR      18  12  76 SW13G18   30.30F WCI   5
6HR MIN TEMP:  18; 6HR MAX TEMP:  23;

HILLSDALE      FAIR      18   9  68 SW12G17   30.28F WCI   5
HOWELL         FAIR      23  13  66 SW15G21   30.22F WCI  10
6HR MIN TEMP:  23; 6HR MAX TEMP:  26;


CITY           SKY/WX    TMP DP  RH WIND       PRES   REMARKS
JACKSON        FAIR      19  11  70 S17       30.25F WCI   4
6HR MIN TEMP:  19; 6HR MAX TEMP:  25;

LAMBERTVILLE   FAIR      17  10  73 SW9G17    30.34F WCI   6
6HR MIN TEMP:  17; 6HR MAX TEMP:  21;

LANSING        FAIR      22  14  71 SW20G25   30.23F WCI   7
6HR MIN TEMP:  22; 6HR MAX TEMP:  27;

LAPEER         FAIR      25  13  60 SW13G22   30.18F WCI  13
6HR MIN TEMP:  24; 6HR MAX TEMP:  26;

MASON          FAIR      23  11  61 SW12G20   30.24F WCI  12
6HR MIN TEMP:  23; 6HR MAX TEMP:  28;

MONROE         FAIR      18   9  65 SW14      30.31F WCI   5
6HR MIN TEMP:  18; 6HR MAX TEMP:  20;

MT. CLEMENS    MOCLDY    22  10  61 SW14G21   30.22F WCI   9
PONTIAC        MOCLDY    23  12  62 SW10      30.20F WCI  12
6HR MIN TEMP:  23; 6HR MAX TEMP:  25;

PORT HOPE        N/A     25  13  60 SW12G29   30.07F WCI  14
6HR MIN TEMP:  19; 6HR MAX TEMP:  25;

PORT HURON     FAIR      21  12  68 S7        30.22F WCI  13
TRI CITIES     FAIR      25  16  68 SW17      30.15F WCI  12
6HR MIN TEMP:  21; 6HR MAX TEMP:  27;

MIDLAND        FAIR      27  14  60 SW15G24   30.14F WCI  15
6HR MIN TEMP:  27; 6HR MAX TEMP:  29;

TROY           FAIR      22  15  73 SW9       30.26F WCI  12
SAGINAW HB     MOCLDY    25  18  74 SW18G24   30.16F WCI  11
$$
MIZ043>046-050>051-056>058-064>065-071>073-077>080-180100-
SOUTHWEST LOWER MICHIGAN

CITY           SKY/WX    TMP DP  RH WIND       PRES   REMARKS
BATTLE CREEK   FAIR      20  11  68 SW20      30.27F WCI   4
6HR MIN TEMP:  20; 6HR MAX TEMP:  26;

BENTON HARBOR  FAIR      21  12  68 SW16G26   30.33F WCI   7
6HR MIN TEMP:  21; 6HR MAX TEMP:  25;

BIG RAPIDS     FAIR      24  13  64 SW15G26   30.12F WCI  11
6HR MIN TEMP:  23; 6HR MAX TEMP:  26;

COLDWATER      FAIR      17  10  72 SW13G18   30.31F WCI   4
6HR MIN TEMP:  17; 6HR MAX TEMP:  24;

FREMONT        FAIR      25  10  54 SW17G28   30.19F WCI  12
6HR MIN TEMP:  24; 6HR MAX TEMP:  26;

HOLLAND        FAIR      26  16  65 SW23G32   30.25F WCI  11
6HR MIN TEMP:  25; 6HR MAX TEMP:  27;

GRAND RAPIDS   MOCLDY    24  14  65 SW20      30.23F WCI  10
6HR MIN TEMP:  24; 6HR MAX TEMP:  27;

IONIA          FAIR      24  16  71 SW22G30   30.20F WCI   8
6HR MIN TEMP:  24; 6HR MAX TEMP:  28;

KALAMAZOO      FAIR      20  10  65 SW15      30.29F WCI   6
6HR MIN TEMP:  20; 6HR MAX TEMP:  26;

LUDINGTON      FAIR      26  18  70 SW21G35   30.13F HAZE    WCI  12
6HR MIN TEMP:  23; 6HR MAX TEMP:  27;

MARSHALL       FAIR      20  10  66 SW13G18   30.27F WCI   7
6HR MIN TEMP:  20; 6HR MAX TEMP:  26;

MOUNT PLEASANT FAIR      26  14  61 SW17G28   30.14F WCI  13
6HR MIN TEMP:  26; 6HR MAX TEMP:  28;

MUSKEGON       MOCLDY    27  15  61 SW16G28   30.24S WCI  15
6HR MIN TEMP:  26; 6HR MAX TEMP:  28;

SOUTH HAVEN    FAIR      25  16  69 SW18G25   30.30F WCI  11
$$
MIZ016>042-180100-
NORTHERN LOWER MICHIGAN

CITY           SKY/WX    TMP DP  RH WIND       PRES   REMARKS
ALPENA         FAIR      24  11  57 SW10      29.97F WCI  14
6HR MIN TEMP:  24; 6HR MAX TEMP:  25;

BEAVER ISLAND  FAIR      28  19  68 SW26G36   29.91F WCI  13
6HR MIN TEMP:  24; 6HR MAX TEMP:  28;

BELLAIRE       FAIR      24  15  69 SW12G18   30.03F WCI  13
6HR MIN TEMP:  24; 6HR MAX TEMP:  26;

CADILLAC       FAIR      20  12  68 SW16G25   30.04F WCI   6
CHARLEVOIX     FAIR      26  17  67 SW17G24   30.00F WCI  14
6HR MIN TEMP:  24; 6HR MAX TEMP:  27;

FRANKFORT      FAIR      28  18  65 SW20G28   30.08F WCI  15
GAYLORD        FAIR      20  11  68 SW20G28   29.95F WCI   4
6HR MIN TEMP:  19; 6HR MAX TEMP:  22; 6HR PCP: TRACE;

GRAYLING       FAIR      21   9  58 SW8       30.01F WCI  12
6HR MIN TEMP:  21; 6HR MAX TEMP:  23;

HARBOR SPRINGS FAIR      26  16  66 SW18G25   29.95F WCI  12
HOUGHTON LAKE  FAIR      22  12  65 SW15G30   30.05F WCI   9
6HR MIN TEMP:  21; 6HR MAX TEMP:  23;

MANISTEE       FAIR      26  16  65 SW10G21   30.11F WCI  16
OSCODA         FAIR      25  11  56 SW16G25   30.03F WCI  12
6HR MIN TEMP:  22; 6HR MAX TEMP:  26;

PELLSTON       FAIR      26  15  63 SW15G25   29.92F WCI  14
6HR MIN TEMP:  24; 6HR MAX TEMP:  26;

ROGERS CITY    FAIR      24  10  55 SW17G25   29.92F WCI  11
TRAVERSE CITY  FAIR      26  14  60 SW15G25   30.02F WCI  14
6HR MIN TEMP:  24; 6HR MAX TEMP:  27;

$$
MIZ007>008-015-180100-
EASTERN UPPER MICHIGAN

CITY           SKY/WX    TMP DP  RH WIND       PRES   REMARKS
KINROSS        FAIR      24  17  74 SW13G22   29.86F WCI  12
6HR MIN TEMP:  23; 6HR MAX TEMP:  26;

MACKINAC ISLAN FAIR      27  20  75 SW24G40   29.88F WCI  12
6HR MIN TEMP:  23; 6HR MAX TEMP:  27;

NEWBERRY       FAIR      19  13  76 SW17G23   29.84S WCI   4
6HR MIN TEMP:  18; 6HR MAX TEMP:  19;

S. S. MARIE    FAIR      23  13  65 SW13      29.86F WCI  11
6HR MIN TEMP:  23; 6HR MAX TEMP:  26;

MUNISING         N/A     22  11  62 S15G29    29.82F WCI   9
6HR MIN TEMP:  21; 6HR MAX TEMP:  28;

$$
MIZ004>006-011>014-085-180100-
CENTRAL UPPER MICHIGAN

CITY           SKY/WX    TMP DP  RH WIND       PRES   REMARKS
MANISTIQUE     FAIR      22  10  59 SW17G24   29.89F WCI   8
6HR MIN TEMP:  17; 6HR MAX TEMP:  22;

ESCANABA       FAIR      19   8  62 S13       29.89F WCI   6
6HR MIN TEMP:  19; 6HR MAX TEMP:  26; 6HR PCP: TRACE;

MENOMINEE      FAIR      22   8  55 W13G21    29.96F WCI  10
6HR MIN TEMP:  20; 6HR MAX TEMP:  24;

SAWYER-GWINN   CLEAR     23   7  50 SW12      29.79F WCI  12
$$
MIZ001>003-009>011-084-180100-
WESTERN UPPER MICHIGAN

CITY           SKY/WX    TMP DP  RH WIND       PRES   REMARKS
IRON MOUNTAIN  FAIR      26   3  37 SW10      29.84F WCI  16
6HR MIN TEMP:  20; 6HR MAX TEMP:  31;

HOUGHTON       FAIR      30  12  47 W25G38    29.75S WCI  16
6HR MIN TEMP:  26; 6HR MAX TEMP:  32; 6HR PCP: TRACE;

COPPER HARBOR    N/A     31  16  54 VRB6G18   29.77S WCI  25
6HR MIN TEMP:  31; 6HR MAX TEMP:  34;

IRONWOOD       FAIR      24  10  55 SW16      29.88R WCI  11
6HR MIN TEMP:  24; 6HR MAX TEMP:  30;

$$

ABBREVIATIONS USED IN REMARKS
   TC - TEMPERATURE IN CELSIUS
  WCI - WIND CHILL INDEX
   HX - HEAT INDEX
  VSB - VISIBILITY





USA.gov is the U.S. government's official web portal to all federal, state and local government web resources and services.